When you browse on this site, cookies collect data to enhance your experience and personalize the content and advertising you see.
Visit our Privacy Policy to learn more. By continuing to use the site, you agree to this use of cookies and data.

Hourly Weather Choszczewo

Today, 10 August, Monday

Time Temperature Precipitation Wind Pressure Humidity
00:00 +20°C° 0 mm 1 mps 749 mmHg 92%
01:00 +19°C° 0 mm 1 mps 749 mmHg 92%
02:00 +19°C° 0 mm 1 mps 749 mmHg 92%
03:00 +19°C° 0 mm 1 mps 749 mmHg 93%
04:00 +18°C° 0 mm 2 mps 749 mmHg 93%
05:00 +19°C° 0 mm 2 mps 749 mmHg 88%
06:00 +20°C° 0 mm 2 mps 749 mmHg 84%
07:00 +21°C° 0 mm 2 mps 749 mmHg 79%
08:00 +24°C° 0 mm 2 mps 749 mmHg 73%
09:00 +25°C° 0 mm 2 mps 749 mmHg 68%
10:00 +27°C° 0 mm 3 mps 750 mmHg 62%
11:00 +27°C° 0 mm 3 mps 749 mmHg 60%
12:00 +27°C° 0 mm 3 mps 749 mmHg 58%
13:00 +28°C° 0 mm 3 mps 749 mmHg 56%
14:00 +28°C° 0.1 mm 3 mps 749 mmHg 58%
15:00 +27°C° 0.1 mm 3 mps 749 mmHg 60%
16:00 +27°C° 0.1 mm 3 mps 749 mmHg 62%
17:00 +25°C° 0.2 mm 3 mps 749 mmHg 70%
18:00 +24°C° 0.2 mm 3 mps 749 mmHg 78%
19:00 +21°C° 0.2 mm 3 mps 749 mmHg 86%
20:00 +20°C° 0 mm 2 mps 749 mmHg 89%
21:00 +19°C° 0 mm 2 mps 749 mmHg 91%
22:00 +18°C° 0 mm 2 mps 749 mmHg 94%
23:00 +18°C° 0 mm 2 mps 750 mmHg 94%

Tomorrow, 11 August, Tuesday

Time Temperature Precipitation Wind Pressure Humidity
00:00 +18°C° 0 mm 2 mps 750 mmHg 95%
01:00 +17°C° 0 mm 2 mps 750 mmHg 95%
02:00 +17°C° 0 mm 2 mps 750 mmHg 95%
03:00 +17°C° 0 mm 2 mps 750 mmHg 96%
04:00 +17°C° 0 mm 2 mps 750 mmHg 96%
05:00 +17°C° 0 mm 2 mps 750 mmHg 92%
06:00 +18°C° 0 mm 2 mps 750 mmHg 87%
07:00 +19°C° 0 mm 3 mps 750 mmHg 83%
08:00 +20°C° 0 mm 3 mps 751 mmHg 76%
09:00 +22°C° 0 mm 3 mps 751 mmHg 70%
10:00 +23°C° 0 mm 4 mps 751 mmHg 64%
11:00 +23°C° 0 mm 4 mps 751 mmHg 62%
12:00 +25°C° 0 mm 4 mps 751 mmHg 60%
13:00 +25°C° 0 mm 4 mps 751 mmHg 58%
14:00 +25°C° 0 mm 4 mps 751 mmHg 58%
15:00 +23°C° 0 mm 5 mps 751 mmHg 58%
16:00 +23°C° 0 mm 5 mps 751 mmHg 58%
17:00 +21°C° 0 mm 4 mps 751 mmHg 63%
18:00 +19°C° 0 mm 3 mps 751 mmHg 69%
19:00 +18°C° 0 mm 3 mps 751 mmHg 75%
20:00 +17°C° 0 mm 2 mps 751 mmHg 78%
21:00 +16°C° 0 mm 2 mps 751 mmHg 81%
22:00 +15°C° 0 mm 2 mps 752 mmHg 84%
23:00 +14°C° 0 mm 2 mps 752 mmHg 86%

Day after tomorrow, 12 August, Wednesday

Time Temperature Precipitation Wind Pressure Humidity
00:00 +14°C° 0 mm 2 mps 752 mmHg 87%
01:00 +13°C° 0 mm 2 mps 752 mmHg 88%
02:00 +13°C° 0 mm 2 mps 752 mmHg 89%
03:00 +12°C° 0 mm 2 mps 752 mmHg 89%
04:00 +12°C° 0 mm 2 mps 752 mmHg 90%
05:00 +13°C° 0 mm 2 mps 752 mmHg 85%
06:00 +15°C° 0 mm 2 mps 752 mmHg 80%
07:00 +16°C° 0 mm 2 mps 752 mmHg 75%
08:00 +18°C° 0 mm 2 mps 752 mmHg 70%
09:00 +19°C° 0 mm 2 mps 752 mmHg 64%
10:00 +21°C° 0 mm 3 mps 753 mmHg 59%
11:00 +21°C° 0 mm 2 mps 752 mmHg 56%
12:00 +23°C° 0 mm 2 mps 752 mmHg 54%
13:00 +24°C° 0 mm 2 mps 752 mmHg 51%
14:00 +24°C° 0 mm 3 mps 752 mmHg 53%
15:00 +22°C° 0 mm 3 mps 752 mmHg 55%
16:00 +22°C° 0 mm 3 mps 751 mmHg 57%
17:00 +20°C° 0 mm 3 mps 751 mmHg 63%
18:00 +19°C° 0 mm 2 mps 751 mmHg 70%
19:00 +17°C° 0 mm 2 mps 751 mmHg 77%
20:00 +16°C° 0 mm 2 mps 751 mmHg 80%
21:00 +15°C° 0 mm 2 mps 751 mmHg 83%
22:00 +14°C° 0 mm 2 mps 752 mmHg 87%
23:00 +13°C° 0 mm 2 mps 752 mmHg 88%

13 August, Thursday

Time Temperature Precipitation Wind Pressure Humidity
00:00 +13°C° 0 mm 2 mps 752 mmHg 89%
01:00 +12°C° 0 mm 2 mps 752 mmHg 91%
02:00 +12°C° 0 mm 1 mps 751 mmHg 91%
03:00 +11°C° 0 mm 1 mps 751 mmHg 91%
04:00 +11°C° 0 mm 1 mps 751 mmHg 90%
05:00 +13°C° 0 mm 1 mps 751 mmHg 84%
06:00 +14°C° 0 mm 1 mps 751 mmHg 78%
07:00 +16°C° 0 mm 1 mps 752 mmHg 72%
08:00 +17°C° 0 mm 2 mps 752 mmHg 67%
09:00 +18°C° 0 mm 2 mps 752 mmHg 62%
10:00 +19°C° 0 mm 2 mps 752 mmHg 56%
11:00 +20°C° 0 mm 2 mps 751 mmHg 54%
12:00 +21°C° 0 mm 2 mps 751 mmHg 51%
13:00 +23°C° 0 mm 2 mps 751 mmHg 48%
14:00 +21°C° 0 mm 2 mps 751 mmHg 49%
15:00 +21°C° 0 mm 2 mps 750 mmHg 50%
16:00 +21°C° 0 mm 2 mps 750 mmHg 50%
17:00 +20°C° 0 mm 2 mps 750 mmHg 58%
18:00 +18°C° 0 mm 2 mps 750 mmHg 65%
19:00 +16°C° 0 mm 2 mps 750 mmHg 73%
20:00 +15°C° 0 mm 2 mps 750 mmHg 75%
21:00 +15°C° 0 mm 2 mps 750 mmHg 77%
22:00 +14°C° 0 mm 2 mps 750 mmHg 79%
23:00 +13°C° 0 mm 2 mps 750 mmHg 81%

14 August, Friday

Time Temperature Precipitation Wind Pressure Humidity
00:00 +13°C° 0 mm 2 mps 750 mmHg 83%
01:00 +13°C° 0 mm 2 mps 750 mmHg 84%
02:00 +12°C° 0 mm 2 mps 750 mmHg 85%
03:00 +12°C° 0 mm 2 mps 750 mmHg 85%
04:00 +12°C° 0 mm 2 mps 750 mmHg 85%
05:00 +13°C° 0 mm 2 mps 750 mmHg 81%
06:00 +15°C° 0 mm 2 mps 750 mmHg 77%
07:00 +16°C° 0 mm 2 mps 750 mmHg 72%
08:00 +18°C° 0 mm 3 mps 750 mmHg 66%
09:00 +19°C° 0 mm 3 mps 750 mmHg 59%
10:00 +21°C° 0 mm 3 mps 750 mmHg 53%
11:00 +22°C° 0 mm 3 mps 750 mmHg 51%
12:00 +22°C° 0 mm 3 mps 750 mmHg 48%
13:00 +24°C° 0 mm 3 mps 750 mmHg 46%
14:00 +24°C° 0 mm 3 mps 749 mmHg 47%
15:00 +24°C° 0 mm 3 mps 749 mmHg 48%
16:00 +24°C° 0 mm 2 mps 749 mmHg 49%
17:00 +21°C° 0 mm 2 mps 749 mmHg 56%
18:00 +20°C° 0 mm 2 mps 749 mmHg 62%
19:00 +18°C° 0 mm 2 mps 749 mmHg 69%
20:00 +17°C° 0 mm 2 mps 749 mmHg 71%
21:00 +16°C° 0 mm 2 mps 749 mmHg 72%
22:00 +16°C° 0 mm 2 mps 749 mmHg 74%
23:00 +15°C° 0 mm 2 mps 749 mmHg 74%

15 August, Saturday

Time Temperature Precipitation Wind Pressure Humidity
00:00 +15°C° 0 mm 1 mps 749 mmHg 74%
01:00 +14°C° 0 mm 1 mps 749 mmHg 74%
02:00 +14°C° 0 mm 1 mps 749 mmHg 75%
03:00 +13°C° 0 mm 1 mps 749 mmHg 76%
04:00 +13°C° 0 mm 1 mps 749 mmHg 77%
05:00 +15°C° 0 mm 1 mps 749 mmHg 73%
06:00 +16°C° 0 mm 1 mps 749 mmHg 69%
07:00 +19°C° 0 mm 1 mps 749 mmHg 65%
08:00 +20°C° 0 mm 1 mps 749 mmHg 60%
09:00 +22°C° 0 mm 1 mps 749 mmHg 54%
10:00 +24°C° 0 mm 1 mps 749 mmHg 49%
11:00 +25°C° 0 mm 1 mps 749 mmHg 46%
12:00 +26°C° 0 mm 1 mps 749 mmHg 44%
13:00 +26°C° 0 mm 1 mps 749 mmHg 41%
14:00 +26°C° 0 mm 1 mps 749 mmHg 43%
15:00 +26°C° 0 mm 1 mps 749 mmHg 44%
16:00 +26°C° 0 mm 2 mps 749 mmHg 45%
17:00 +24°C° 0 mm 2 mps 749 mmHg 53%
18:00 +21°C° 0 mm 2 mps 749 mmHg 61%
19:00 +19°C° 0 mm 2 mps 749 mmHg 69%
20:00 +19°C° 0 mm 1 mps 749 mmHg 73%
21:00 +18°C° 0 mm 1 mps 749 mmHg 77%
22:00 +16°C° 0 mm 1 mps 749 mmHg 81%
23:00 +16°C° 0 mm 1 mps 749 mmHg 81%
Show more